DMC3-FM3

Last updated on Thu Oct 30 2025 00:02:38 GMT+0000 (Coordinated Universal Time)

1 40717U 15032C 25302.48822934 .00001098 00000+0 13366-3 0 9991 2 40717 97.6853 174.3006 0006928 96.6486 263.5518 14.85324553555661
UTC large
Height (km)
Speed (km/s)
/
Latitude / Longitude
Inclination (degrees)
Orbital Period (minutes)
Azimuth
Elevation
Range (km)
Doppler Factor

Next 0 passes for location: London (51.5072 / 0.1276)

Sorry there are no passes over London.